VK2RZ Weather Reports


Display with metric or nautical units.
time (UTC)temp
F
wind
direction
speed
MPH
gust
MPH
rain 1hr
in
rain 24hr
in
rain mn
in
humidity
%
barometer
mb
20260831053407 65 29 7.0 7.0 0.00 0.00 0.00 6 1028.8
20260831052407 65 44 2.0 10.0 0.00 0.00 0.00 6 1028.9
20260831051407 65 38 1.0 10.0 0.00 0.00 0.00 6 1029.0
20260831050407 65 81 4.0 8.0 0.00 0.00 0.00 7 1029.1
20260831045407 65 83 6.0 8.0 0.00 0.00 0.00 7 1029.0
20260831044407 65 57 2.0 6.0 0.00 0.00 0.00 7 1029.0
20260831043407 65 81 3.0 14.0 0.00 0.00 0.00 7 1029.1
20260831042407 65 53 2.0 7.0 0.00 0.00 0.00 7 1029.0
20260831041407 65 82 3.0 10.0 0.00 0.00 0.00 7 1029.2
20260831040406 65 82 8.0 9.0 0.00 0.00 0.00 7 1029.2
20260831035406 65 71 5.0 8.0 0.00 0.00 0.00 7 1029.1
20260831034406 65 57 5.0 8.0 0.00 0.00 0.00 7 1029.2
20260831033406 65 80 4.0 9.0 0.00 0.00 0.00 7 1029.4
20260831032406 65 82 6.0 11.0 0.00 0.00 0.00 7 1029.5
20260831031406 65 62 6.0 9.0 0.00 0.00 0.00 7 1029.5
20260831030405 65 99 3.0 8.0 0.00 0.00 0.00 7 1029.6
20260831025405 65 87 3.0 11.0 0.00 0.00 0.00 7 1029.7
20260831024405 65 12 7.0 9.0 0.00 0.00 0.00 7 1029.9
20260831023405 65 72 2.0 8.0 0.00 0.00 0.00 7 1029.9
20260831022405 65 65 7.0 10.0 0.00 0.00 0.00 7 1030.0
20260831021405 65 9 3.0 9.0 0.00 0.00 0.00 7 1030.1
20260831020405 65 47 2.0 11.0 0.00 0.00 0.00 7 1030.4
20260831015404 65 46 7.0 12.0 0.00 0.00 0.00 7 1030.5
20260831014404 65 33 8.0 11.0 0.00 0.00 0.00 6 1030.8
20260831013404 66 82 4.0 9.0 0.00 0.00 0.00 6 1030.9
20260831012404 65 94 6.0 8.0 0.00 0.00 0.00 6 1031.1
20260831011404 66 97 3.0 8.0 0.00 0.00 0.00 6 1031.1
20260831010404 65 60 4.0 7.0 0.00 0.00 0.00 7 1031.2
20260831005404 65 47 5.0 8.0 0.00 0.00 0.00 6 1031.2
20260831004404 66 43 7.0 8.0 0.00 0.00 0.00 6 1031.3
20260831003404 66 83 4.0 6.0 0.00 0.00 0.00 6 1031.3
20260831002404 66 29 4.0 8.0 0.00 0.00 0.00 6 1031.2
20260831001404 65 89 3.0 7.0 0.00 0.00 0.00 6 1031.1
20260831000404 65 37 2.0 5.0 0.00 0.00 0.00 6 1031.1
20260830235404 64 62 2.0 5.0 0.00 0.00 0.00 6 1031.2
20260830234404 64 39 2.0 4.0 0.00 0.00 0.00 6 1031.2
20260830233404 64 22 1.0 3.0 0.00 0.00 0.00 6 1031.3
20260830232404 62 354 1.0 7.0 0.00 0.00 0.00 7 1031.3
20260830231404 62 358 2.0 5.0 0.00 0.00 0.00 7 1031.3
20260830230404 62 0 0.0 5.0 0.00 0.00 0.00 7 1031.4
20260830225404 61 273 2.0 3.0 0.00 0.00 0.00 7 1031.4
20260830224404 60 274 2.0 4.0 0.00 0.00 0.00 7 1031.4
20260830223404 59 277 4.0 6.0 0.00 0.00 0.00 8 1031.3
20260830222404 59 282 2.0 6.0 0.00 0.00 0.00 8 1031.3
20260830221404 59 291 1.0 3.0 0.00 0.00 0.00 8 1031.3
20260830220404 58 291 1.0 4.0 0.00 0.00 0.00 8 1031.2
20260830215404 57 0 0.0 2.0 0.00 0.00 0.00 8 1031.1
20260830214404 56 290 2.0 6.0 0.00 0.00 0.00 8 1031.1
20260830213404 56 287 3.0 6.0 0.00 0.00 0.00 8 1030.9
20260830212404 55 293 4.0 4.0 0.00 0.00 0.00 8 1031.0
20260830211404 54 297 2.0 4.0 0.00 0.00 0.00 8 1031.0
20260830210403 54 0 0.0 4.0 0.00 0.00 0.00 9 1030.9
20260830205403 53 301 2.0 3.0 0.00 0.00 0.00 9 1030.8
20260830204403 53 300 1.0 5.0 0.00 0.00 0.00 9 1030.7
20260830203403 52 301 3.0 7.0 0.00 0.00 0.00 9 1030.4
20260830202403 53 303 3.0 7.0 0.00 0.00 0.00 9 1030.3
20260830201403 54 297 4.0 7.0 0.00 0.00 0.00 9 1030.2
20260830200403 55 278 2.0 6.0 0.00 0.00 0.00 8 1030.2
20260830195403 56 322 2.0 4.0 0.00 0.00 0.00 9 1029.9
20260830194403 56 0 0.0 3.0 0.00 0.00 0.00 9 1030.0
20260830193403 56 322 2.0 3.0 0.00 0.00 0.00 9 1029.9
20260830192403 56 322 2.0 3.0 0.00 0.00 0.00 9 1029.8
20260830191403 56 322 3.0 4.0 0.00 0.00 0.00 9 1029.7
20260830190402 56 322 1.0 3.0 0.00 0.00 0.00 9 1029.6
20260830185402 56 322 4.0 4.0 0.00 0.00 0.00 9 1029.6
20260830184402 56 322 3.0 5.0 0.00 0.00 0.00 9 1029.6
20260830183402 56 322 3.0 4.0 0.00 0.00 0.00 9 1029.6
20260830182402 57 0 0.0 0.0 0.00 0.00 0.00 9 1029.7
20260830181402 56 0 0.0 0.0 0.00 0.00 0.00 9 1029.9
20260830180402 56 0 0.0 0.0 0.00 0.00 0.00 9 1029.9
20260830175402 57 0 0.0 0.0 0.00 0.00 0.00 9 1029.9
20260830174402 56 0 0.0 0.0 0.00 0.00 0.00 9 1030.1
20260830173402 56 0 0.0 0.0 0.00 0.00 0.00 9 1030.0
20260830172402 56 0 0.0 0.0 0.00 0.00 0.00 9 1030.0
20260830171402 56 0 0.0 0.0 0.00 0.00 0.00 9 1030.1
20260830170402 57 0 0.0 0.0 0.00 0.00 0.00 9 1030.1
20260830165402 56 0 0.0 0.0 0.00 0.00 0.00 9 1030.2
20260830164401 56 0 0.0 0.0 0.00 0.00 0.00 9 1030.3
20260830163401 57 0 0.0 0.0 0.00 0.00 0.00 8 1030.3
20260830162401 57 0 0.0 0.0 0.00 0.00 0.00 8 1030.3
20260830161401 56 0 0.0 0.0 0.00 0.00 0.00 8 1030.5
20260830160401 57 0 0.0 0.0 0.00 0.00 0.00 8 1030.6
20260830155401 57 0 0.0 0.0 0.00 0.00 0.00 8 1030.6
20260830154401 57 0 0.0 0.0 0.00 0.00 0.00 8 1030.6
20260830153401 56 0 0.0 0.0 0.00 0.00 0.00 8 1030.7
20260830152401 57 0 0.0 0.0 0.00 0.00 0.00 8 1030.8
20260830151400 56 0 0.0 0.0 0.00 0.00 0.00 8 1030.7
20260830150400 56 0 0.0 0.0 0.00 0.00 0.00 8 1030.8
20260830145400 56 0 0.0 0.0 0.00 0.00 0.00 8 1030.9
20260830144400 57 0 0.0 0.0 0.00 0.00 0.00 8 1030.9
20260830143400 57 0 0.0 0.0 0.00 0.00 0.00 8 1031.0
20260830142400 56 0 0.0 0.0 0.00 0.00 0.00 8 1031.0
20260830141400 56 0 0.0 0.0 0.00 0.00 0.00 8 1031.0
20260830140400 56 0 0.0 0.0 0.00 0.00 0.00 8 1031.0
20260830135400 56 0 0.0 0.0 0.00 0.00 0.00 8 1031.0
20260830134400 56 0 0.0 0.0 0.00 0.00 0.00 8 1031.0
20260830133400 56 0 0.0 0.0 0.00 0.00 0.00 8 1031.0
20260830132359 56 0 0.0 3.0 0.00 0.00 0.00 7 1031.1
20260830131359 56 0 0.0 0.0 0.00 0.00 0.00 7 1031.2
20260830130359 56 0 0.0 0.0 0.00 0.00 0.00 7 1031.2
20260830125359 55 0 0.0 0.0 0.00 0.00 0.00 7 1031.1
20260830124359 55 0 0.0 0.0 0.00 0.00 0.00 7 1031.1
20260830123359 55 0 0.0 0.0 0.00 0.00 0.00 7 1030.9
20260830122359 58 0 0.0 3.0 0.00 0.00 0.00 7 1030.7
20260830121359 59 323 3.0 4.0 0.00 0.00 0.00 7 1030.6
20260830120359 59 324 3.0 5.0 0.00 0.00 0.00 7 1030.7
20260830115359 58 325 3.0 5.0 0.00 0.00 0.00 7 1030.7
20260830114358 58 328 3.0 4.0 0.00 0.00 0.00 7 1030.8
20260830113358 58 0 0.0 3.0 0.00 0.00 0.00 7 1030.8
20260830112358 58 330 4.0 5.0 0.00 0.00 0.00 7 1030.6
20260830111358 58 334 1.0 3.0 0.00 0.00 0.00 7 1030.8
20260830110358 58 334 3.0 4.0 0.00 0.00 0.00 8 1030.6
20260830105358 57 334 2.0 3.0 0.00 0.00 0.00 8 1030.6
20260830104357 57 0 0.0 4.0 0.00 0.00 0.00 8 1030.5
20260830103357 58 341 2.0 5.0 0.00 0.00 0.00 8 1030.3
20260830102357 58 345 5.0 5.0 0.00 0.00 0.00 8 1030.2
20260830101357 58 355 2.0 4.0 0.00 0.00 0.00 8 1030.3
20260830100357 58 357 4.0 4.0 0.00 0.00 0.00 8 1030.2
20260830095356 58 0 2.0 3.0 0.00 0.00 0.00 8 1030.0
20260830094356 58 1 4.0 5.0 0.00 0.00 0.00 8 1029.9
20260830093356 58 31 3.0 4.0 0.00 0.00 0.00 8 1029.9
20260830092356 58 34 2.0 3.0 0.00 0.00 0.00 8 1029.8
20260830091356 57 0 0.0 0.0 0.00 0.00 0.00 8 1029.8
20260830090356 58 34 1.0 2.0 0.00 0.00 0.00 8 1029.7
20260830085356 58 0 0.0 2.0 0.00 0.00 0.00 8 1029.8
20260830084356 58 0 0.0 2.0 0.00 0.00 0.00 8 1029.7
20260830083356 58 0 0.0 2.0 0.00 0.00 0.00 8 1029.4
20260830082356 58 0 0.0 0.0 0.00 0.00 0.00 8 1029.5
20260830081356 57 0 0.0 0.0 0.00 0.00 0.00 8 1029.4
20260830080356 57 0 0.0 0.0 0.00 0.00 0.00 8 1029.2
20260830075356 58 0 0.0 0.0 0.00 0.00 0.00 8 1029.2
20260830074355 58 0 0.0 0.0 0.00 0.00 0.00 8 1029.2
20260830073355 58 34 1.0 2.0 0.00 0.00 0.00 7 1029.1
20260830072355 59 0 0.0 0.0 0.00 0.00 0.00 7 1029.1
20260830071355 59 0 0.0 0.0 0.00 0.00 0.00 7 1029.1
20260830070355 59 0 0.0 1.0 0.00 0.00 0.00 7 1029.0
20260830065355 60 0 0.0 0.0 0.00 0.00 0.00 7 1028.9
20260830064355 60 0 0.0 2.0 0.00 0.00 0.00 7 1029.0
20260830063355 60 34 2.0 3.0 0.00 0.00 0.00 7 1029.0
20260830062355 61 36 1.0 3.0 0.00 0.00 0.00 7 1029.0
20260830061355 61 0 0.0 1.0 0.00 0.00 0.00 7 1029.0
20260830060355 62 36 1.0 4.0 0.00 0.00 0.00 7 1029.0
20260830055355 62 35 2.0 5.0 0.00 0.00 0.00 7 1029.0
20260830054355 62 32 2.0 5.0 0.00 0.00 0.00 7 1029.0